When you browse on this site, cookies collect data to enhance your experience and personalize the content and advertising you see.
Visit our Privacy Policy to learn more. By continuing to use the site, you agree to this use of cookies and data.
  • In Portugal
  • List of Countries
  • For 7 days
  • Water Temperature
  • Weather Map
  • Weather Widgets
  • user-avatar
    Login

    Hourly Weather Zaafrana

    Today, 23 September, Monday

    Time Temperature Precipitation Wind Pressure Humidity
    00:00 +22°C° 0 mm 3 mps 744 mmHg 77%
    01:00 +22°C° 0 mm 3 mps 744 mmHg 76%
    02:00 +21°C° 0 mm 3 mps 744 mmHg 76%
    03:00 +21°C° 0 mm 3 mps 744 mmHg 76%
    04:00 +21°C° 0 mm 3 mps 744 mmHg 76%
    05:00 +20°C° 0 mm 3 mps 744 mmHg 76%
    06:00 +22°C° 0 mm 4 mps 745 mmHg 69%
    07:00 +25°C° 0 mm 5 mps 745 mmHg 63%
    08:00 +27°C° 0 mm 5 mps 745 mmHg 55%
    09:00 +29°C° 0 mm 6 mps 745 mmHg 48%
    10:00 +32°C° 0 mm 6 mps 745 mmHg 41%
    11:00 +34°C° 0 mm 7 mps 745 mmHg 34%
    12:00 +35°C° 0 mm 7 mps 744 mmHg 31%
    13:00 +36°C° 0 mm 7 mps 743 mmHg 27%
    14:00 +38°C° 0 mm 7 mps 743 mmHg 24%
    15:00 +36°C° 0 mm 7 mps 743 mmHg 26%
    16:00 +35°C° 0 mm 7 mps 743 mmHg 28%
    17:00 +34°C° 0 mm 7 mps 743 mmHg 30%
    18:00 +32°C° 0 mm 6 mps 743 mmHg 39%
    19:00 +29°C° 0 mm 6 mps 744 mmHg 48%
    20:00 +27°C° 0 mm 5 mps 744 mmHg 57%
    21:00 +26°C° 0 mm 5 mps 744 mmHg 61%
    22:00 +25°C° 0 mm 4 mps 744 mmHg 64%
    23:00 +23°C° 0 mm 4 mps 744 mmHg 68%

    Tomorrow, 24 September, Tuesday

    Time Temperature Precipitation Wind Pressure Humidity
    00:00 +22°C° 0 mm 4 mps 744 mmHg 66%
    01:00 +22°C° 0 mm 4 mps 744 mmHg 65%
    02:00 +21°C° 0 mm 3 mps 744 mmHg 64%
    03:00 +21°C° 0 mm 3 mps 744 mmHg 65%
    04:00 +20°C° 0 mm 4 mps 744 mmHg 66%
    05:00 +20°C° 0 mm 4 mps 744 mmHg 67%
    06:00 +22°C° 0 mm 4 mps 744 mmHg 60%
    07:00 +25°C° 0 mm 4 mps 745 mmHg 52%
    08:00 +27°C° 0 mm 5 mps 745 mmHg 45%
    09:00 +29°C° 0 mm 5 mps 744 mmHg 37%
    10:00 +32°C° 0 mm 5 mps 744 mmHg 29%
    11:00 +34°C° 0 mm 6 mps 744 mmHg 21%
    12:00 +35°C° 0 mm 6 mps 743 mmHg 20%
    13:00 +36°C° 0 mm 6 mps 743 mmHg 18%
    14:00 +38°C° 0 mm 6 mps 742 mmHg 17%
    15:00 +36°C° 0 mm 6 mps 742 mmHg 19%
    16:00 +35°C° 0 mm 5 mps 742 mmHg 21%
    17:00 +34°C° 0 mm 5 mps 742 mmHg 23%
    18:00 +30°C° 0 mm 5 mps 742 mmHg 34%
    19:00 +28°C° 0 mm 5 mps 743 mmHg 45%
    20:00 +26°C° 0 mm 5 mps 743 mmHg 56%
    21:00 +25°C° 0 mm 4 mps 743 mmHg 59%
    22:00 +24°C° 0 mm 3 mps 743 mmHg 62%
    23:00 +22°C° 0 mm 3 mps 743 mmHg 65%

    Day after tomorrow, 25 September, Wednesday

    Time Temperature Precipitation Wind Pressure Humidity
    00:00 +21°C° 0 mm 3 mps 743 mmHg 62%
    01:00 +21°C° 0 mm 3 mps 743 mmHg 60%
    02:00 +20°C° 0 mm 2 mps 743 mmHg 57%
    03:00 +19°C° 0 mm 2 mps 743 mmHg 56%
    04:00 +19°C° 0 mm 2 mps 743 mmHg 55%
    05:00 +18°C° 0 mm 2 mps 742 mmHg 54%
    06:00 +21°C° 0 mm 2 mps 743 mmHg 45%
    07:00 +25°C° 0 mm 2 mps 743 mmHg 35%
    08:00 +28°C° 0 mm 2 mps 743 mmHg 25%
    09:00 +30°C° 0 mm 2 mps 743 mmHg 21%
    10:00 +33°C° 0 mm 3 mps 743 mmHg 16%
    11:00 +35°C° 0 mm 3 mps 743 mmHg 11%
    12:00 +36°C° 0 mm 3 mps 743 mmHg 10%
    13:00 +37°C° 0 mm 4 mps 742 mmHg 9%
    14:00 +38°C° 0 mm 4 mps 742 mmHg 8%
    15:00 +37°C° 0 mm 4 mps 742 mmHg 10%
    16:00 +35°C° 0 mm 4 mps 742 mmHg 13%
    17:00 +34°C° 0 mm 4 mps 742 mmHg 15%
    18:00 +32°C° 0 mm 4 mps 742 mmHg 20%
    19:00 +28°C° 0 mm 4 mps 743 mmHg 25%
    20:00 +26°C° 0 mm 3 mps 743 mmHg 30%
    21:00 +26°C° 0 mm 3 mps 743 mmHg 34%
    22:00 +25°C° 0 mm 3 mps 744 mmHg 39%
    23:00 +25°C° 0 mm 3 mps 744 mmHg 44%

    26 September, Thursday

    Time Temperature Precipitation Wind Pressure Humidity
    00:00 +24°C° 0 mm 2 mps 744 mmHg 41%
    01:00 +24°C° 0 mm 2 mps 743 mmHg 38%
    02:00 +24°C° 0 mm 2 mps 743 mmHg 36%
    03:00 +24°C° 0 mm 2 mps 743 mmHg 37%
    04:00 +23°C° 0 mm 2 mps 743 mmHg 38%
    05:00 +23°C° 0 mm 2 mps 743 mmHg 39%
    06:00 +26°C° 0 mm 2 mps 744 mmHg 34%
    07:00 +29°C° 0 mm 2 mps 744 mmHg 28%
    08:00 +32°C° 0 mm 2 mps 744 mmHg 22%
    09:00 +34°C° 0 mm 3 mps 744 mmHg 21%
    10:00 +36°C° 0 mm 3 mps 744 mmHg 19%
    11:00 +37°C° 0 mm 4 mps 744 mmHg 18%
    12:00 +38°C° 0 mm 4 mps 744 mmHg 17%
    13:00 +40°C° 0 mm 5 mps 743 mmHg 16%
    14:00 +40°C° 0 mm 5 mps 742 mmHg 16%
    15:00 +39°C° 0 mm 5 mps 742 mmHg 17%
    16:00 +37°C° 0 mm 5 mps 742 mmHg 18%
    17:00 +36°C° 0 mm 4 mps 742 mmHg 19%
    18:00 +34°C° 0 mm 4 mps 742 mmHg 24%
    19:00 +31°C° 0 mm 3 mps 743 mmHg 29%
    20:00 +28°C° 0 mm 2 mps 743 mmHg 33%
    21:00 +28°C° 0 mm 3 mps 743 mmHg 37%
    22:00 +27°C° 0 mm 3 mps 743 mmHg 41%
    23:00 +27°C° 0 mm 3 mps 744 mmHg 45%

    27 September, Friday

    Time Temperature Precipitation Wind Pressure Humidity
    00:00 +26°C° 0 mm 3 mps 743 mmHg 47%
    01:00 +26°C° 0 mm 3 mps 743 mmHg 48%
    02:00 +25°C° 0 mm 2 mps 743 mmHg 50%
    03:00 +25°C° 0 mm 2 mps 743 mmHg 50%
    04:00 +25°C° 0 mm 2 mps 743 mmHg 51%
    05:00 +25°C° 0 mm 2 mps 743 mmHg 51%
    06:00 +27°C° 0 mm 2 mps 743 mmHg 44%
    07:00 +29°C° 0 mm 3 mps 744 mmHg 38%
    08:00 +31°C° 0 mm 3 mps 744 mmHg 31%
    09:00 +34°C° 0 mm 3 mps 744 mmHg 28%
    10:00 +36°C° 0 mm 4 mps 744 mmHg 24%
    11:00 +37°C° 0 mm 4 mps 744 mmHg 21%
    12:00 +38°C° 0 mm 4 mps 743 mmHg 20%
    13:00 +40°C° 0 mm 4 mps 742 mmHg 19%
    14:00 +40°C° 0 mm 4 mps 742 mmHg 18%
    15:00 +38°C° 0 mm 4 mps 742 mmHg 20%
    16:00 +37°C° 0 mm 4 mps 742 mmHg 21%
    17:00 +36°C° 0 mm 3 mps 742 mmHg 23%
    18:00 +34°C° 0 mm 4 mps 742 mmHg 33%
    19:00 +32°C° 0 mm 4 mps 743 mmHg 43%
    20:00 +28°C° 0 mm 4 mps 743 mmHg 52%
    21:00 +27°C° 0 mm 4 mps 744 mmHg 58%
    22:00 +27°C° 0 mm 4 mps 744 mmHg 63%
    23:00 +26°C° 0 mm 3 mps 744 mmHg 69%

    28 September, Saturday

    Time Temperature Precipitation Wind Pressure Humidity
    00:00 +25°C° 0 mm 3 mps 744 mmHg 70%
    01:00 +25°C° 0 mm 3 mps 744 mmHg 71%
    02:00 +25°C° 0 mm 3 mps 744 mmHg 73%
    03:00 +24°C° 0 mm 3 mps 744 mmHg 73%
    04:00 +24°C° 0 mm 3 mps 744 mmHg 73%
    05:00 +24°C° 0 mm 3 mps 744 mmHg 73%
    06:00 +25°C° 0 mm 3 mps 744 mmHg 64%
    07:00 +27°C° 0 mm 3 mps 744 mmHg 55%
    08:00 +29°C° 0 mm 3 mps 744 mmHg 47%
    09:00 +32°C° 0 mm 4 mps 744 mmHg 41%
    10:00 +34°C° 0 mm 4 mps 744 mmHg 36%
    11:00 +36°C° 0 mm 4 mps 744 mmHg 31%
    12:00 +36°C° 0 mm 4 mps 743 mmHg 29%
    13:00 +37°C° 0 mm 5 mps 743 mmHg 28%
    14:00 +37°C° 0 mm 5 mps 742 mmHg 26%
    15:00 +37°C° 0 mm 5 mps 742 mmHg 28%
    16:00 +36°C° 0 mm 5 mps 742 mmHg 30%
    17:00 +35°C° 0 mm 5 mps 742 mmHg 33%
    18:00 +32°C° 0 mm 5 mps 742 mmHg 41%
    19:00 +29°C° 0 mm 5 mps 743 mmHg 50%
    20:00 +27°C° 0 mm 5 mps 743 mmHg 58%
    21:00 +26°C° 0 mm 4 mps 743 mmHg 62%
    22:00 +25°C° 0 mm 4 mps 743 mmHg 65%
    23:00 +24°C° 0 mm 3 mps 743 mmHg 69%
    Show more